Hourly Data Report for October 01, 2000

SHERBROOKE A
QUEBEC

45°26'00.000" N
71°41'00.000" W
241.40 m
7028124
71610
YSC

Download Data

Hourly Data (October 2000)
Hourly Data Report for October 1, 2000
TIME
LST
Temp Definition
°C
Dew Point Definition
°C
Rel Hum Definition
%
Precip. Amount Definition
mm

Wind Dir Definition
10's deg

Wind Spd Definition
km/h
Visibility Definition
km
Stn Press Definition
kPa
Hmdx Definition


Wind Chill Definition


Weather Definition


00:00 4.1 3.0 93   12 4 15.0 99.12      
01:00 4.1 3.4 95     0 15.0 99.12      
02:00 4.1 3.3 95   8 4 15.0 99.12      
03:00 3.2 2.6 96   10 4 15.0 99.12      
04:00 3.2 2.8 97   12 4 15.0 99.12      
05:00 3.1 2.7 97   7 4 15.0 99.12      
06:00 2.9 2.3 96   8 4 15.0 99.15      
07:00 6.5 5.4 93     0 24.1 99.18     Mainly Clear
08:00 11.0 7.0 76     0 24.1 99.18     Mainly Clear
09:00 14.1 7.8 66     0 24.1 99.15     Mainly Clear
10:00 18.1 9.8 58   23 9 24.1 99.12     Mostly Cloudy
11:00 19.6 9.9 53   23 9 24.1 99.08     Cloudy
12:00 20.9 9.1 47   23 17 24.1 99.02     Mostly Cloudy
13:00 20.9 8.6 45   23 11 24.1 98.95     Mostly Cloudy
14:00 21.3 8.2 43   23 13 24.1 98.92     Mainly Clear
15:00 21.9 9.2 44   21 11 24.1 98.85     Mainly Clear
16:00 21.4 9.8 48   21 7 24.1 98.82     Mainly Clear
17:00 17.8 11.5 67     0 15.0 98.82      
18:00 11.8 9.1 84   18 6 15.0 98.82      
19:00 13.7 8.5 71   18 6 15.0 98.82      
20:00 9.0 8.4 96   7 4 9.7 98.82      
21:00 7.9 7.4 97   10 4 2.6 98.85      
22:00 7.6 6.7 94   9 4 11.3 98.85      
23:00 7.2 6.5 95   9 6 8.0 98.82      

Notes on Data Quality.

Legend

  • E = Estimated
  • M = Missing
  • NA = Not Available*
  • [empty] = Indicates an unobserved value
Date modified: